Pittsburgh, PA

9:08 PM EDT on May 22, 2017 (GMT -0400)
Pittsburgh International

Weather History for KPIT - January, 2012

Change the Weather History Date:

Sunday, January 29, 2012

  Actual Average Record
Temperature  
Mean Temperature 35 °F 29 °F  
Max Temperature 42 °F 36 °F 72 °F (1914)
Min Temperature 28 °F 21 °F -11 °F (1977)
Degree Days  
Heating Degree Days 30 36  
Month to date heating degree days 949 1065  
Since 1 July heating degree days 2786 3240  
Cooling Degree Days 0 0  
Month to date cooling degree days 0 0  
Year to date cooling degree days 0 0  
Moisture  
Dew Point 18 °F    
Average Humidity 56    
Maximum Humidity 82    
Minimum Humidity 30    
Precipitation  
Precipitation 0.02 in 0.09 in 1.04 in (1975)
Month to date precipitation 3.85 2.53  
Year to date precipitation 3.85 2.53  
Snow  
Snow 0.20 in 0.40 in 10.00 in (1925)
Month to date snowfall 15.8 10.7  
Since 1 July snowfall 18.6 21.4  
Snow Depth 0.00 in    
Sea Level Pressure  
Sea Level Pressure 30.11 in    
Wind  
Wind Speed 15 mph (WSW)    
Max Wind Speed 37 mph    
Max Gust Speed 47 mph    
Visibility 9 miles    
Events Snow    
T = Trace of Precipitation, MM = Missing Value Source: NWS Daily Summary

Daily Weather History Graph

Daily Weather History Graph

Search for Another Location

Airport or City:

Trip Planner

Search our weather history database for the weather conditions in past years. The results will help you decide how hot, cold, wet, or windy it might be!

Date:

Astronomy

Jan. 29, 2012 Rise Set
Actual Time 7:33 AM EST 5:34 PM EST
Civil Twilight 7:04 AM EST 6:03 PM EST
Nautical Twilight 6:31 AM EST 6:36 PM EST
Astronomical Twilight 5:59 AM EST 7:08 PM EST
Moon 10:22 AM EST (1/29) No Moon Set
Length of Visible Light 10h 59m
Length of Day
10h 01m
Waxing Crescent, 36% of the Moon is Illuminated
Jan 29
Waxing Crescent
Jan 30
First Quarter
Feb 7
Full
Feb 14
Last Quarter
Feb 21
New

Hourly Weather History & Observations

Time (EST) Temp. Windchill Dew Point Humidity Pressure Visibility Wind Dir Wind Speed Gust Speed Precip Events Conditions
12:51 AM 28.9 °F 19.8 °F 14.0 °F 54% 30.18 in 10.0 mi WSW 10.4 mph - N/A   Clear
1:51 AM 28.9 °F 20.4 °F 14.0 °F 54% 30.19 in 10.0 mi WSW 9.2 mph - N/A   Clear
2:51 AM 28.0 °F 20.0 °F 15.1 °F 58% 30.20 in 10.0 mi SW 8.1 mph - N/A   Clear
3:51 AM 28.0 °F 19.3 °F 15.1 °F 58% 30.20 in 10.0 mi SW 9.2 mph - N/A   Clear
4:51 AM 28.0 °F 20.0 °F 15.1 °F 58% 30.20 in 10.0 mi SW 8.1 mph - N/A   Clear
5:51 AM 28.0 °F 19.3 °F 15.1 °F 58% 30.19 in 10.0 mi SW 9.2 mph 17.3 mph N/A   Clear
6:51 AM 28.0 °F 19.3 °F 15.1 °F 58% 30.18 in 10.0 mi SSW 9.2 mph - N/A   Clear
7:51 AM 28.9 °F 19.2 °F 15.1 °F 56% 30.18 in 10.0 mi SW 11.5 mph - N/A   Partly Cloudy
8:51 AM 30.0 °F 20.5 °F 15.1 °F 54% 30.17 in 10.0 mi SSW 11.5 mph - N/A   Mostly Cloudy
9:51 AM 33.1 °F 23.0 °F 15.1 °F 48% 30.16 in 10.0 mi SW 15.0 mph - N/A   Scattered Clouds
10:51 AM 36.0 °F 26.3 °F 15.1 °F 43% 30.15 in 10.0 mi SW 16.1 mph 25.3 mph N/A   Mostly Cloudy
11:51 AM 37.9 °F 27.9 °F 16.0 °F 41% 30.12 in 10.0 mi SW 19.6 mph 26.5 mph 0.00 in   Mostly Cloudy
12:51 PM 39.0 °F 30.3 °F 15.1 °F 38% 30.08 in 10.0 mi SW 16.1 mph 31.1 mph N/A   Mostly Cloudy
1:51 PM 39.9 °F 31.4 °F 15.1 °F 36% 30.04 in 10.0 mi WSW 16.1 mph 27.6 mph N/A   Mostly Cloudy
2:51 PM 41.0 °F 33.1 °F 15.1 °F 35% 30.00 in 10.0 mi SW 15.0 mph 25.3 mph N/A   Overcast
3:51 PM 42.1 °F 34.9 °F 14.0 °F 32% 29.98 in 10.0 mi SW 13.8 mph 21.9 mph N/A   Mostly Cloudy
4:51 PM 37.9 °F 28.5 °F 21.0 °F 51% 30.00 in 10.0 mi West 17.3 mph 25.3 mph 0.00 in Snow Light Snow
5:15 PM 35.6 °F 26.2 °F 26.6 °F 70% 29.94 in 3.0 mi WSW 15.0 mph 29.9 mph 0.00 in Snow Light Snow
5:31 PM 35.6 °F 25.5 °F 24.8 °F 65% 29.96 in 5.0 mi West 17.3 mph 26.5 mph 0.00 in Snow Light Snow
5:45 PM 33.8 °F 21.6 °F 26.6 °F 75% 29.97 in 1.0 mi West 23.0 mph 41.4 mph 0.00 in Snow Light Snow
5:51 PM 33.1 °F 20.6 °F 28.9 °F 85% 30.04 in 3.0 mi WNW 23.0 mph 34.5 mph 0.00 in Snow Light Snow
6:16 PM 32.0 °F 21.2 °F 26.6 °F 80% 30.00 in 9.0 mi West 16.1 mph 28.8 mph N/A   Scattered Clouds
6:51 PM 32.0 °F 22.5 °F 21.0 °F 64% 30.09 in 10.0 mi West 12.7 mph 29.9 mph 0.00 in   Scattered Clouds
7:51 PM 30.9 °F 17.8 °F 19.9 °F 64% 30.12 in 10.0 mi West 23.0 mph 32.2 mph N/A   Mostly Cloudy
8:51 PM 30.9 °F 18.1 °F 19.9 °F 64% 30.16 in 10.0 mi West 21.9 mph 28.8 mph N/A   Overcast
9:51 PM 30.0 °F 17.5 °F 19.9 °F 66% 30.19 in 10.0 mi WNW 19.6 mph 31.1 mph 0.00 in   Overcast
10:51 PM 28.9 °F 16.9 °F 17.1 °F 61% 30.21 in 10.0 mi WNW 17.3 mph - N/A   Overcast
11:51 PM 28.9 °F 17.7 °F 18.0 °F 64% 30.24 in 10.0 mi WNW 15.0 mph - 0.00 in   Mostly Cloudy